TimeMST,TemperatureF,Dew PointF,Humidity,Sea Level PressureIn,VisibilityMPH,Wind Direction,Wind SpeedMPH,Gust SpeedMPH,PrecipitationIn,Events,Conditions,WindDirDegrees,DateUTC
12:53 AM,28.9,15.1,56,29.84,10.0,ESE,3.5,-,N/A,,Clear,120,2013-01-10 07:53:00
1:53 AM,26.1,14.0,60,29.83,10.0,East,3.5,-,N/A,,Clear,100,2013-01-10 08:53:00
2:53 AM,32.0,15.1,50,29.79,10.0,SE,9.2,-,N/A,,Clear,130,2013-01-10 09:53:00
3:53 AM,28.0,14.0,56,29.78,10.0,ESE,13.8,-,N/A,,Clear,120,2013-01-10 10:53:00
4:53 AM,27.0,12.9,56,29.80,10.0,Calm,Calm,-,N/A,,Clear,0,2013-01-10 11:53:00
5:53 AM,30.9,14.0,50,29.74,10.0,ENE,9.2,-,N/A,,Clear,60,2013-01-10 12:53:00
6:53 AM,33.1,14.0,46,29.73,10.0,ESE,9.2,-,N/A,,Clear,120,2013-01-10 13:53:00
7:53 AM,30.9,15.1,52,29.75,10.0,ESE,5.8,18.4,N/A,,Clear,110,2013-01-10 14:53:00
8:53 AM,28.9,17.1,61,29.73,10.0,SW,3.5,-,N/A,,Clear,230,2013-01-10 15:53:00
9:53 AM,30.0,17.1,59,29.69,10.0,Calm,Calm,-,N/A,,Clear,0,2013-01-10 16:53:00
10:53 AM,35.1,17.1,48,29.68,10.0,Calm,Calm,-,N/A,,Clear,0,2013-01-10 17:53:00
11:53 AM,48.0,10.0,22,29.59,10.0,West,11.5,-,N/A,,Clear,260,2013-01-10 18:53:00
12:53 PM,51.1,8.1,18,29.57,10.0,SSW,16.1,21.9,N/A,,Clear,200,2013-01-10 19:53:00
1:53 PM,50.0,10.0,20,29.57,10.0,SSW,13.8,-,N/A,,Clear,200,2013-01-10 20:53:00
2:53 PM,50.0,9.0,19,29.54,10.0,WSW,6.9,-,N/A,,Clear,250,2013-01-10 21:53:00
3:53 PM,54.0,10.0,17,29.54,10.0,SW,12.7,-,N/A,,Clear,220,2013-01-10 22:53:00
4:53 PM,50.0,16.0,26,29.53,10.0,SW,24.2,32.2,N/A,,Clear,220,2013-01-10 23:53:00
5:53 PM,44.1,16.0,32,29.53,10.0,SW,9.2,-,N/A,,Clear,220,2013-01-11 00:53:00
6:53 PM,45.0,15.1,30,29.51,10.0,WNW,8.1,-,N/A,,Mostly Cloudy,290,2013-01-11 01:53:00
7:53 PM,37.9,16.0,41,29.52,10.0,West,10.4,-,N/A,,Scattered Clouds,280,2013-01-11 02:53:00
8:53 PM,34.0,15.1,46,29.52,10.0,West,9.2,-,N/A,,Clear,260,2013-01-11 03:53:00
9:53 PM,30.9,15.1,52,29.52,10.0,WNW,4.6,-,N/A,,Clear,300,2013-01-11 04:53:00
10:53 PM,30.0,15.1,54,29.49,10.0,WNW,3.5,-,N/A,,Clear,290,2013-01-11 05:53:00
11:53 PM,28.0,15.1,58,29.43,10.0,WNW,4.6,-,N/A,,Clear,300,2013-01-11 06:53:00